2015-05-11 00:03:58 r, 16.26m,0000000027Hz,0000016731c,0000000.036s, 024.4C,00002195
2015-05-11 00:13:58 r, 16.30m,0000000026Hz,0000017317c,0000000.038s, 024.1C,00002195
2015-05-11 00:23:58 r, 16.25m,0000000028Hz,0000016456c,0000000.036s, 024.1C,00002195
2015-05-11 00:33:58 r, 16.29m,0000000027Hz,0000017129c,0000000.037s, 024.1C,00002195
2015-05-11 00:43:58 r, 16.42m,0000000024Hz,0000019251c,0000000.042s, 024.1C,00002195
2015-05-11 00:53:58 r, 16.52m,0000000022Hz,0000021171c,0000000.046s, 024.1C,00002195
2015-05-11 01:03:58 r, 16.47m,0000000022Hz,0000020302c,0000000.044s, 023.8C,00002195
2015-05-11 01:13:58 r, 16.29m,0000000027Hz,0000017216c,0000000.037s, 023.8C,00002195
2015-05-11 01:23:58 r, 16.25m,0000000027Hz,0000016521c,0000000.036s, 023.8C,00002195
2015-05-11 01:33:58 r, 16.27m,0000000028Hz,0000016783c,0000000.036s, 023.8C,00002195
2015-05-11 01:43:58 r, 16.20m,0000000030Hz,0000015684c,0000000.034s, 023.8C,00002195
2015-05-11 01:53:58 r, 16.09m,0000000032Hz,0000014211c,0000000.031s, 023.8C,00002195
2015-05-11 02:03:58 r, 16.02m,0000000034Hz,0000013321c,0000000.029s, 023.5C,00002195
2015-05-11 02:13:58 r, 16.08m,0000000033Hz,0000014072c,0000000.031s, 023.5C,00002195
2015-05-11 02:23:58 r, 15.98m,0000000036Hz,0000012866c,0000000.028s, 023.5C,00002195
2015-05-11 02:33:58 r, 15.94m,0000000037Hz,0000012353c,0000000.027s, 023.5C,00002195
2015-05-11 02:43:58 r, 15.86m,0000000040Hz,0000011514c,0000000.025s, 023.5C,00002195
2015-05-11 02:53:58 r, 15.83m,0000000041Hz,0000011198c,0000000.024s, 023.5C,00002195
2015-05-11 03:03:58 r, 15.83m,0000000041Hz,0000011228c,0000000.024s, 023.5C,00002195
2015-05-11 03:13:58 r, 15.90m,0000000038Hz,0000011956c,0000000.026s, 023.5C,00002195
2015-05-11 03:23:58 r, 15.87m,0000000039Hz,0000011536c,0000000.025s, 023.5C,00002195
2015-05-11 03:33:58 r, 15.79m,0000000042Hz,0000010772c,0000000.023s, 023.2C,00002195
2015-05-11 03:43:58 r, 15.77m,0000000043Hz,0000010684c,0000000.023s, 023.2C,00002195
2015-05-11 03:53:58 r, 15.80m,0000000042Hz,0000010898c,0000000.024s, 023.2C,00002195
2015-05-11 04:03:58 r, 15.79m,0000000042Hz,0000010779c,0000000.023s, 023.2C,00002195
2015-05-11 04:13:58 r, 15.88m,0000000040Hz,0000011688c,0000000.025s, 023.2C,00002195
2015-05-11 04:23:58 r, 15.94m,0000000037Hz,0000012413c,0000000.027s, 023.2C,00002195
2015-05-11 04:33:58 r, 16.04m,0000000034Hz,0000013549c,0000000.029s, 023.2C,00002195
2015-05-11 04:43:58 r, 15.85m,0000000040Hz,0000011335c,0000000.025s, 023.2C,00002195
2015-05-11 04:53:58 r, 15.33m,0000000065Hz,0000007048c,0000000.015s, 022.8C,00002195
2015-05-11 05:03:58 r, 14.20m,0000000186Hz,0000000000c,0000000.000s, 022.8C,00002195
2015-05-11 05:13:58 r, 12.64m,0000000783Hz,0000000000c,0000000.000s, 022.8C,00002195
2015-05-11 05:23:58 r, 11.08m,0000003300Hz,0000000000c,0000000.000s, 022.5C,00002195
2015-05-11 05:33:58 r, 09.57m,0000013191Hz,0000000000c,0000000.000s, 022.5C,00002195
2015-05-11 05:43:58 r, 08.58m,0000033225Hz,0000000000c,0000000.000s, 022.5C,00002195
2015-05-11 05:53:58 r, 07.91m,0000060719Hz,0000000000c,0000000.000s, 022.5C,00002195
2015-05-11 06:03:58 r, 07.29m,0000108006Hz,0000000000c,0000000.000s, 022.5C,00002195
2015-05-11 06:13:58 r, 06.51m,0000222164Hz,0000000000c,0000000.000s, 022.5C,00002195
2015-05-11 06:23:58 r, 06.20m,0000295165Hz,0000000000c,0000000.000s, 022.5C,00002195
2015-05-11 06:33:58 r, 00.00m,0000564943Hz,0000000000c,0000000.000s, 022.5C,00002195
2015-05-11 06:43:58 r, 00.00m,0000563471Hz,0000000000c,0000000.000s, 022.5C,00002195
2015-05-11 06:53:58 r, 00.00m,0000563461Hz,0000000000c,0000000.000s, 022.8C,00002195
2015-05-11 07:03:58 r, 00.00m,0000563638Hz,0000000000c,0000000.000s, 022.8C,00002195
2015-05-11 07:13:58 r, 00.00m,0000563545Hz,0000000000c,0000000.000s, 023.2C,00002195
2015-05-11 07:23:58 r, 00.00m,0000563594Hz,0000000000c,0000000.000s, 023.2C,00002195
2015-05-11 07:33:58 r, 00.00m,0000563625Hz,0000000000c,0000000.000s, 023.2C,00002195
2015-05-11 07:43:58 r, 00.00m,0000563644Hz,0000000000c,0000000.000s, 023.5C,00002195
2015-05-11 07:53:58 r, 00.00m,0000563663Hz,0000000000c,0000000.000s, 023.5C,00002195
2015-05-11 08:03:58 r, 00.00m,0000563657Hz,0000000000c,0000000.000s, 023.5C,00002195
2015-05-11 08:13:58 r, 00.00m,0000563688Hz,0000000000c,0000000.000s, 024.1C,00002195
2015-05-11 08:23:58 r, 00.00m,0000563767Hz,0000000000c,0000000.000s, 024.4C,00002195
2015-05-11 08:33:58 r, 00.00m,0000563853Hz,0000000000c,0000000.000s, 024.8C,00002195
2015-05-11 08:43:58 r, 00.00m,0000563928Hz,0000000000c,0000000.000s, 025.1C,00002195
2015-05-11 08:53:58 r, 00.00m,0000563913Hz,0000000000c,0000000.000s, 025.4C,00002195
2015-05-11 09:03:58 r, 00.00m,0000563919Hz,0000000000c,0000000.000s, 025.7C,00002195
2015-05-11 09:13:58 r, 00.00m,0000564014Hz,0000000000c,0000000.000s, 026.1C,00002195
2015-05-11 09:23:58 r, 00.00m,0000563980Hz,0000000000c,0000000.000s, 026.1C,00002195
2015-05-11 09:33:58 r, 00.00m,0000563992Hz,0000000000c,0000000.000s, 026.1C,00002195
2015-05-11 09:43:58 r, 00.00m,0000564083Hz,0000000000c,0000000.000s, 026.1C,00002195
2015-05-11 09:53:58 r, 00.00m,0000564130Hz,0000000000c,0000000.000s, 026.7C,00002195
2015-05-11 10:03:58 r, 00.00m,0000564158Hz,0000000000c,0000000.000s, 027.0C,00002195
2015-05-11 10:13:58 r, 00.00m,0000564267Hz,0000000000c,0000000.000s, 027.3C,00002195
2015-05-11 10:23:58 r, 00.00m,0000564315Hz,0000000000c,0000000.000s, 028.0C,00002195
2015-05-11 10:33:58 r, 00.00m,0000564376Hz,0000000000c,0000000.000s, 028.6C,00002195
2015-05-11 10:43:58 r, 00.00m,0000564464Hz,0000000000c,0000000.000s, 029.3C,00002195
2015-05-11 10:53:58 r, 00.00m,0000564532Hz,0000000000c,0000000.000s, 030.6C,00002195
2015-05-11 11:03:58 r, 00.00m,0000564719Hz,0000000000c,0000000.000s, 031.5C,00002195
2015-05-11 11:13:58 r, 00.00m,0000564687Hz,0000000000c,0000000.000s, 032.2C,00002195
2015-05-11 11:23:58 r, 00.00m,0000564682Hz,0000000000c,0000000.000s, 031.9C,00002195
2015-05-11 11:33:58 r, 00.00m,0000564683Hz,0000000000c,0000000.000s, 031.9C,00002195
2015-05-11 11:43:58 r, 00.00m,0000564706Hz,0000000000c,0000000.000s, 031.5C,00002195
2015-05-11 11:53:58 r, 00.00m,0000564726Hz,0000000000c,0000000.000s, 031.9C,00002195
2015-05-11 12:03:58 r, 00.00m,0000564869Hz,0000000000c,0000000.000s, 032.5C,00002195
2015-05-11 12:13:58 r, 00.00m,0000564848Hz,0000000000c,0000000.000s, 033.5C,00002195
2015-05-11 12:23:58 r, 00.00m,0000564866Hz,0000000000c,0000000.000s, 033.8C,00002195
2015-05-11 12:33:58 r, 00.00m,0000564815Hz,0000000000c,0000000.000s, 033.1C,00002195
2015-05-11 12:43:58 r, 00.00m,0000564723Hz,0000000000c,0000000.000s, 032.8C,00002195
2015-05-11 12:53:58 r, 00.00m,0000564859Hz,0000000000c,0000000.000s, 032.5C,00002195
2015-05-11 13:03:58 r, 00.00m,0000564668Hz,0000000000c,0000000.000s, 032.5C,00002195
2015-05-11 13:13:58 r, 00.00m,0000564594Hz,0000000000c,0000000.000s, 031.9C,00002195
2015-05-11 13:23:58 r, 00.00m,0000564460Hz,0000000000c,0000000.000s, 030.6C,00002195
2015-05-11 13:33:58 r, 00.00m,0000564489Hz,0000000000c,0000000.000s, 030.2C,00002195
2015-05-11 13:43:58 r, 00.00m,0000564466Hz,0000000000c,0000000.000s, 029.9C,00002195
2015-05-11 13:53:58 r, 00.00m,0000564404Hz,0000000000c,0000000.000s, 030.2C,00002195
2015-05-11 14:03:58 r, 00.00m,0000564476Hz,0000000000c,0000000.000s, 030.2C,00002195
2015-05-11 14:13:58 r, 00.00m,0000564507Hz,0000000000c,0000000.000s, 030.2C,00002195
2015-05-11 14:23:58 r, 00.00m,0000564421Hz,0000000000c,0000000.000s, 030.2C,00002195
2015-05-11 14:33:58 r, 00.00m,0000564437Hz,0000000000c,0000000.000s, 029.9C,00002195
2015-05-11 14:43:58 r, 00.00m,0000564356Hz,0000000000c,0000000.000s, 029.6C,00002195
2015-05-11 14:53:58 r, 00.00m,0000564279Hz,0000000000c,0000000.000s, 029.3C,00002195
2015-05-11 15:03:58 r, 00.00m,0000564404Hz,0000000000c,0000000.000s, 029.3C,00002195
2015-05-11 15:13:58 r, 00.00m,0000564494Hz,0000000000c,0000000.000s, 029.6C,00002195
2015-05-11 15:23:58 r, 00.00m,0000564482Hz,0000000000c,0000000.000s, 029.9C,00002195
2015-05-11 15:33:58 r, 00.00m,0000564575Hz,0000000000c,0000000.000s, 030.2C,00002195
2015-05-11 15:43:58 r, 00.00m,0000564521Hz,0000000000c,0000000.000s, 030.9C,00002195
2015-05-11 15:53:58 r, 00.00m,0000564505Hz,0000000000c,0000000.000s, 030.6C,00002195
2015-05-11 16:03:58 r, 00.00m,0000564443Hz,0000000000c,0000000.000s, 030.6C,00002195
2015-05-11 16:13:58 r, 00.00m,0000564412Hz,0000000000c,0000000.000s, 030.2C,00002195
2015-05-11 16:23:58 r, 00.00m,0000564473Hz,0000000000c,0000000.000s, 030.2C,00002195
2015-05-11 16:33:58 r, 00.00m,0000564448Hz,0000000000c,0000000.000s, 029.9C,00002195
2015-05-11 16:43:58 r, 00.00m,0000564418Hz,0000000000c,0000000.000s, 030.2C,00002195
2015-05-11 16:53:58 r, 00.00m,0000564462Hz,0000000000c,0000000.000s, 030.2C,00002195
2015-05-11 17:03:58 r, 00.00m,0000564494Hz,0000000000c,0000000.000s, 030.2C,00002195
2015-05-11 17:13:58 r, 00.00m,0000564448Hz,0000000000c,0000000.000s, 030.2C,00002195
2015-05-11 17:23:58 r, 00.00m,0000564460Hz,0000000000c,0000000.000s, 030.2C,00002195
2015-05-11 17:33:58 r, 00.00m,0000564467Hz,0000000000c,0000000.000s, 030.6C,00002195
2015-05-11 17:43:58 r, 00.00m,0000564486Hz,0000000000c,0000000.000s, 030.6C,00002195
2015-05-11 17:53:58 r, 00.00m,0000564479Hz,0000000000c,0000000.000s, 030.6C,00002195
2015-05-11 18:03:58 r, 00.00m,0000564445Hz,0000000000c,0000000.000s, 030.2C,00002195
2015-05-11 18:13:58 r, 00.00m,0000564483Hz,0000000000c,0000000.000s, 030.2C,00002195
2015-05-11 18:23:58 r, 00.00m,0000564320Hz,0000000000c,0000000.000s, 029.9C,00002195
2015-05-11 18:33:58 r, 00.00m,0000564153Hz,0000000000c,0000000.000s, 029.6C,00002195
2015-05-11 18:43:58 r, 00.00m,0000564170Hz,0000000000c,0000000.000s, 029.0C,00002195
2015-05-11 18:53:58 r, 00.00m,0000564182Hz,0000000000c,0000000.000s, 028.6C,00002195
2015-05-11 19:03:58 r, 00.00m,0000564169Hz,0000000000c,0000000.000s, 028.3C,00002195
2015-05-11 19:13:58 r, 00.00m,0000564113Hz,0000000000c,0000000.000s, 028.3C,00002195
2015-05-11 19:23:58 r, 00.00m,0000564076Hz,0000000000c,0000000.000s, 028.0C,00002195
2015-05-11 19:33:58 r, 00.00m,0000564042Hz,0000000000c,0000000.000s, 027.7C,00002195
2015-05-11 19:43:58 r, 00.00m,0000564135Hz,0000000000c,0000000.000s, 027.7C,00002195
2015-05-11 19:53:58 r, 00.00m,0000564090Hz,0000000000c,0000000.000s, 027.7C,00002195
2015-05-11 20:03:58 r, 00.00m,0000564044Hz,0000000000c,0000000.000s, 027.3C,00002195
2015-05-11 20:13:58 r, 00.00m,0000564065Hz,0000000000c,0000000.000s, 027.3C,00002195
2015-05-11 20:23:58 r, 00.00m,0000564041Hz,0000000000c,0000000.000s, 027.0C,00002195
2015-05-11 20:33:58 r, 00.00m,0000564070Hz,0000000000c,0000000.000s, 027.0C,00002195
2015-05-11 20:43:58 r, 00.00m,0000424363Hz,0000000000c,0000000.000s, 026.7C,00002195
2015-05-11 20:53:58 r, 06.66m,0000193366Hz,0000000000c,0000000.000s, 026.4C,00002195
2015-05-11 21:03:58 r, 07.82m,0000066313Hz,0000000000c,0000000.000s, 025.7C,00002195
2015-05-11 21:13:58 r, 08.96m,0000023275Hz,0000000000c,0000000.000s, 025.1C,00002195
2015-05-11 21:23:58 r, 10.51m,0000005574Hz,0000000000c,0000000.000s, 024.8C,00002195
2015-05-11 21:33:58 r, 12.20m,0000001181Hz,0000000000c,0000000.000s, 024.1C,00002195
2015-05-11 21:43:58 r, 13.91m,0000000243Hz,0000000000c,0000000.000s, 023.8C,00002195
2015-05-11 21:53:58 r, 15.48m,0000000056Hz,0000008107c,0000000.018s, 023.8C,00002195
2015-05-11 22:03:58 r, 16.69m,0000000018Hz,0000024764c,0000000.054s, 023.5C,00002195
2015-05-11 22:13:58 r, 17.47m,0000000009Hz,0000050851c,0000000.110s, 023.2C,00002195
2015-05-11 22:23:58 r, 17.30m,0000000011Hz,0000043501c,0000000.094s, 023.2C,00002195
2015-05-11 22:33:58 r, 17.84m,0000000007Hz,0000071341c,0000000.155s, 022.8C,00002195
2015-05-11 22:43:58 r, 18.19m,0000000005Hz,0000097551c,0000000.212s, 022.8C,00002195
2015-05-11 22:53:58 r, 18.27m,0000000005Hz,0000104537c,0000000.227s, 022.5C,00002195
2015-05-11 23:03:58 r, 18.16m,0000000005Hz,0000094952c,0000000.206s, 022.2C,00002195
2015-05-11 23:13:58 r, 18.37m,0000000004Hz,0000115253c,0000000.250s, 022.2C,00002195
2015-05-11 23:23:58 r, 18.38m,0000000004Hz,0000116077c,0000000.252s, 021.9C,00002195
2015-05-11 23:33:58 r, 18.06m,0000000005Hz,0000086508c,0000000.188s, 021.9C,00002195
2015-05-11 23:43:58 r, 18.30m,0000000005Hz,0000108134c,0000000.235s, 021.5C,00002195
2015-05-11 23:53:58 r, 18.23m,0000000004Hz,0000101383c,0000000.220s, 021.5C,00002195
